• In Portugal
  • List of Countries
  • For 7 days
  • Water Temperature
  • Satellite Maps
  • Weather Map
  • Weather Widgets
  • user-avatar
    Login

    Hourly Weather Ordino

    Today, 23 February, Friday

    Time Temperature Precipitation Wind Pressure Humidity
    00:00 -9°C° 0 mm 2 mps 622 mmHg 78%
    01:00 -9°C° 0 mm 2 mps 622 mmHg 78%
    02:00 -10°C° 0 mm 2 mps 622 mmHg 77%
    03:00 -10°C° 0 mm 2 mps 622 mmHg 77%
    04:00 -10°C° 0 mm 2 mps 622 mmHg 77%
    05:00 -10°C° 0 mm 2 mps 621 mmHg 76%
    06:00 -10°C° 0 mm 2 mps 621 mmHg 76%
    07:00 -9°C° 0 mm 2 mps 622 mmHg 71%
    08:00 -7°C° 0 mm 2 mps 623 mmHg 65%
    09:00 -5°C° 0 mm 2 mps 623 mmHg 60%
    10:00 -4°C° 0 mm 2 mps 624 mmHg 57%
    11:00 -1°C° 0 mm 1 mps 624 mmHg 54%
    12:00 +1°C° 0 mm 1 mps 625 mmHg 51%
    13:00 +1°C° 0 mm 1 mps 624 mmHg 53%
    14:00 +1°C° 0 mm 1 mps 624 mmHg 54%
    15:00 +1°C° 0 mm 1 mps 624 mmHg 56%
    16:00 -1°C° 0 mm 1 mps 623 mmHg 64%
    17:00 -4°C° 0 mm 0 mps 623 mmHg 73%
    18:00 -6°C° 0 mm 0 mps 622 mmHg 82%
    19:00 -6°C° 0 mm 0 mps 622 mmHg 82%
    20:00 -7°C° 0 mm 0 mps 622 mmHg 82%
    21:00 -7°C° 0 mm 1 mps 622 mmHg 83%
    22:00 -7°C° 0 mm 1 mps 622 mmHg 82%
    23:00 -8°C° 0 mm 0 mps 622 mmHg 81%

    Tomorrow, 24 February, Saturday

    Time Temperature Precipitation Wind Pressure Humidity
    00:00 -8°C° 0 mm 0 mps 622 mmHg 80%
    01:00 -8°C° 0 mm 1 mps 622 mmHg 79%
    02:00 -8°C° 0 mm 1 mps 622 mmHg 77%
    03:00 -8°C° 0 mm 1 mps 622 mmHg 76%
    04:00 -8°C° 0 mm 1 mps 622 mmHg 75%
    05:00 -8°C° 0 mm 1 mps 622 mmHg 73%
    06:00 -8°C° 0 mm 1 mps 622 mmHg 72%
    07:00 -4°C° 0 mm 1 mps 623 mmHg 66%
    08:00 -3°C° 0 mm 0 mps 624 mmHg 60%
    09:00 -1°C° 0 mm 0 mps 625 mmHg 54%
    10:00 +1°C° 0 mm 1 mps 625 mmHg 52%
    11:00 +2°C° 0 mm 1 mps 626 mmHg 50%
    12:00 +3°C° 0 mm 1 mps 626 mmHg 48%
    13:00 +3°C° 0 mm 1 mps 626 mmHg 51%
    14:00 +3°C° 0 mm 1 mps 626 mmHg 53%
    15:00 +2°C° 0 mm 1 mps 625 mmHg 56%
    16:00 +1°C° 0.1 mm 1 mps 625 mmHg 64%
    17:00 -1°C° 0.1 mm 1 mps 625 mmHg 71%
    18:00 -3°C° 0.1 mm 0 mps 625 mmHg 79%
    19:00 -2°C° 0.1 mm 1 mps 625 mmHg 80%
    20:00 -3°C° 0.1 mm 1 mps 625 mmHg 81%
    21:00 -3°C° 0.1 mm 1 mps 625 mmHg 83%
    22:00 -3°C° 0 mm 1 mps 625 mmHg 81%
    23:00 -3°C° 0 mm 1 mps 625 mmHg 80%

    Day after tomorrow, 25 February, Sunday

    Time Temperature Precipitation Wind Pressure Humidity
    00:00 -4°C° 0 mm 1 mps 625 mmHg 78%
    01:00 -4°C° 0 mm 1 mps 625 mmHg 77%
    02:00 -4°C° 0 mm 1 mps 625 mmHg 76%
    03:00 -4°C° 0 mm 1 mps 625 mmHg 75%
    04:00 -4°C° 0 mm 1 mps 625 mmHg 74%
    05:00 -4°C° 0 mm 1 mps 625 mmHg 73%
    06:00 -6°C° 0 mm 2 mps 625 mmHg 72%
    07:00 -2°C° 0 mm 1 mps 626 mmHg 67%
    08:00 0°C° 0 mm 1 mps 626 mmHg 63%
    09:00 +1°C° 0 mm 1 mps 627 mmHg 58%
    10:00 +3°C° 0 mm 1 mps 628 mmHg 58%
    11:00 +4°C° 0 mm 1 mps 628 mmHg 57%
    12:00 +5°C° 0 mm 1 mps 628 mmHg 57%
    13:00 +4°C° 0 mm 2 mps 628 mmHg 59%
    14:00 +4°C° 0 mm 2 mps 627 mmHg 60%
    15:00 +4°C° 0 mm 2 mps 627 mmHg 61%
    16:00 +2°C° 0 mm 2 mps 627 mmHg 69%
    17:00 -1°C° 0 mm 2 mps 626 mmHg 77%
    18:00 -3°C° 0 mm 2 mps 625 mmHg 85%
    19:00 -4°C° 0 mm 2 mps 625 mmHg 85%
    20:00 -4°C° 0 mm 2 mps 626 mmHg 86%
    21:00 -5°C° 0 mm 2 mps 626 mmHg 86%
    22:00 -5°C° 0 mm 2 mps 626 mmHg 83%
    23:00 -5°C° 0 mm 2 mps 626 mmHg 80%

    26 February, Monday

    Time Temperature Precipitation Wind Pressure Humidity
    00:00 -6°C° 0 mm 2 mps 626 mmHg 76%
    01:00 -6°C° 0 mm 2 mps 625 mmHg 76%
    02:00 -6°C° 0 mm 2 mps 625 mmHg 75%
    03:00 -6°C° 0 mm 2 mps 625 mmHg 74%
    04:00 -6°C° 0 mm 2 mps 625 mmHg 73%
    05:00 -7°C° 0 mm 2 mps 625 mmHg 73%
    06:00 -7°C° 0 mm 2 mps 625 mmHg 73%
    07:00 -5°C° 0 mm 2 mps 625 mmHg 69%
    08:00 -3°C° 0 mm 2 mps 626 mmHg 64%
    09:00 0°C° 0 mm 1 mps 627 mmHg 60%
    10:00 -1°C° 0 mm 2 mps 627 mmHg 58%
    11:00 +1°C° 0 mm 2 mps 627 mmHg 56%
    12:00 +2°C° 0 mm 2 mps 627 mmHg 53%
    13:00 +2°C° 0 mm 2 mps 626 mmHg 55%
    14:00 +1°C° 0 mm 2 mps 626 mmHg 57%
    15:00 +1°C° 0 mm 2 mps 625 mmHg 59%
    16:00 -2°C° 0.1 mm 2 mps 625 mmHg 66%
    17:00 -4°C° 0.1 mm 2 mps 624 mmHg 73%
    18:00 -6°C° 0.1 mm 2 mps 624 mmHg 80%
    19:00 -4°C° 0.1 mm 1 mps 624 mmHg 79%
    20:00 -6°C° 0.1 mm 1 mps 624 mmHg 79%
    21:00 -6°C° 0.1 mm 1 mps 624 mmHg 78%
    22:00 -6°C° 0.2 mm 1 mps 624 mmHg 77%
    23:00 -7°C° 0.2 mm 1 mps 624 mmHg 76%

    27 February, Tuesday

    Time Temperature Precipitation Wind Pressure Humidity
    00:00 -7°C° 0.2 mm 1 mps 623 mmHg 75%
    01:00 -7°C° 0.2 mm 1 mps 623 mmHg 75%
    02:00 -7°C° 0.2 mm 1 mps 623 mmHg 74%
    03:00 -7°C° 0.2 mm 1 mps 623 mmHg 74%
    04:00 -8°C° 0.1 mm 1 mps 623 mmHg 73%
    05:00 -8°C° 0.1 mm 1 mps 623 mmHg 73%
    06:00 -8°C° 0.1 mm 1 mps 623 mmHg 72%
    07:00 -7°C° 0.1 mm 1 mps 623 mmHg 68%
    08:00 -6°C° 0.1 mm 1 mps 623 mmHg 64%
    09:00 -6°C° 0.1 mm 1 mps 624 mmHg 60%
    10:00 -4°C° 0.1 mm 1 mps 624 mmHg 60%
    11:00 -3°C° 0.1 mm 1 mps 624 mmHg 59%
    12:00 -4°C° 0.1 mm 2 mps 625 mmHg 58%
    13:00 -4°C° 0.2 mm 2 mps 624 mmHg 59%
    14:00 -4°C° 0.2 mm 2 mps 624 mmHg 60%
    15:00 -4°C° 0.2 mm 2 mps 624 mmHg 61%
    16:00 -3°C° 0.2 mm 1 mps 624 mmHg 65%
    17:00 -4°C° 0.2 mm 1 mps 623 mmHg 69%
    18:00 -6°C° 0.2 mm 1 mps 623 mmHg 73%
    19:00 -7°C° 0.1 mm 1 mps 623 mmHg 74%
    20:00 -7°C° 0.1 mm 1 mps 623 mmHg 75%
    21:00 -7°C° 0.1 mm 1 mps 624 mmHg 76%
    22:00 -7°C° 0 mm 1 mps 623 mmHg 76%
    23:00 -7°C° 0 mm 1 mps 623 mmHg 77%

    28 February, Wednesday

    Time Temperature Precipitation Wind Pressure Humidity
    00:00 -7°C° 0 mm 1 mps 623 mmHg 77%
    01:00 -7°C° 0.1 mm 1 mps 623 mmHg 77%
    02:00 -7°C° 0.1 mm 1 mps 622 mmHg 76%
    03:00 -7°C° 0.1 mm 1 mps 622 mmHg 76%
    04:00 -7°C° 0.2 mm 1 mps 622 mmHg 78%
    05:00 -7°C° 0.2 mm 1 mps 622 mmHg 79%
    06:00 -7°C° 0.2 mm 1 mps 622 mmHg 81%
    07:00 -7°C° 0.2 mm 2 mps 622 mmHg 80%
    08:00 -6°C° 0.2 mm 2 mps 622 mmHg 79%
    09:00 -6°C° 0.2 mm 3 mps 622 mmHg 78%
    10:00 -5°C° 0.3 mm 3 mps 622 mmHg 79%
    11:00 -4°C° 0.3 mm 3 mps 621 mmHg 79%
    12:00 -3°C° 0.3 mm 4 mps 621 mmHg 79%
    13:00 -3°C° 0.7 mm 4 mps 620 mmHg 81%
    14:00 -4°C° 0.7 mm 4 mps 619 mmHg 82%
    15:00 -4°C° 0.7 mm 4 mps 618 mmHg 84%
    16:00 -4°C° 0.7 mm 4 mps 617 mmHg 86%
    17:00 -4°C° 0.7 mm 4 mps 617 mmHg 88%
    18:00 -4°C° 0.7 mm 4 mps 616 mmHg 90%
    19:00 -2°C° 0.9 mm 3 mps 615 mmHg 90%
    20:00 -2°C° 0.9 mm 3 mps 615 mmHg 91%
    21:00 -2°C° 0.9 mm 3 mps 615 mmHg 92%
    22:00 -2°C° 0.6 mm 3 mps 614 mmHg 92%
    23:00 -2°C° 0.6 mm 3 mps 614 mmHg 92%
    Show more